Weather Roundup
Issued by NWS

Home | Current Version | Previous Version | Text Only | Print | Product List | Glossary On
Versions: 1 2 3 4 5 6 7 8 9 10 11 12 13 14 15 16 17 18 19 20 21 22 23 24 25 26 27 28 29 30 31 32 33 34 35 36 37 38 39 40 41 42 43 44 45 46 47 48 49 50
000
NZUS93 KARX 242010
HRRWXR

CURRENT HOURLY OBSERVATIONS ACROSS
MUCH OF THE UPPER MISSISSIPPI VALLEY
NATIONAL WEATHER SERVICE LA CROSSE WI
200 PM CST WED DEC 24 2014


...SOUTHEAST MINNESOTA...


CITY           SKY/WX    TMP DP  RH WIND       PRES   REMARKS
ROCHESTER      CLOUDY    33  30  88 NW13      29.61F WCI  24
ROCHESTER/MAYO CLOUDY    34  31  92 NW12G17   29.61F WCI  25
WINONA         CLOUDY    37  32  81 NW16      29.61S WCI  28
AUSTIN         CLOUDY    34  30  86 NW9G16    29.62F WCI  26
ALBERT LEA     CLOUDY    34  32  93 NW7       29.63F WCI  28
DODGE CENTER   CLOUDY    34  32  93 NW10      29.62F FOG     WCI  26
PRESTON        CLOUDY    32  31  93 NW12      29.61F WCI  23
OWATONNA       PTSUNNY   34  30  86 NW9       29.64F WCI  26
FARIBAULT      CLOUDY   N/A N/A N/A NW6       29.65F
$$

...ELSEWHERE IN MINNESOTA...


CITY           SKY/WX    TMP DP  RH WIND       PRES   REMARKS
MINNEAPOLIS    CLOUDY    36  30  79 NW7       29.64F WCI  30
INTNL FALLS    LGT SNOW  33  31  92 W5        29.60F FOG     WCI  29
DULUTH         CLOUDY    34  29  82 NW5       29.59F WCI  30
RED WING       CLOUDY    36  32  87 NW5       29.62F WCI  32
REDWOOD FALLS  CLOUDY    32  29  88 W12       29.68F WCI  23
MANKATO        CLOUDY    34  28  80 NW9       29.66F WCI  26
WORTHINGTON    CLOUDY    30 -18  11 W12       29.68F WCI  21
FAIRMONT       CLOUDY    32  27  80 NW9       29.67F WCI  24
$$

...SOUTHWEST WISCONSIN...


CITY           SKY/WX    TMP DP  RH WIND       PRES   REMARKS
LA CROSSE      CLOUDY    38  32  79 NW12      29.58F WCI  30
PRAIRIE DU CHI CLOUDY    37  32  82 NW9       29.57F WCI  30
BOSCOBEL       CLOUDY    37  32  82 NW12G17   29.57S WCI  29
LONE ROCK      CLOUDY    39  32  76 NW8       29.54F WCI  33
PLATTEVILLE    CLOUDY    34  32  92 CALM      29.55S
FORT MC COY    CLOUDY    35  33  92 NW7       29.57F WCI  29
CAMP DOUGLAS   CLOUDY    36  36 100 NW7       29.54S WCI  30
VIROQUA        CLOUDY    33  33 100 N8        29.54F WCI  26
WIS DELLS      LGT RAIN  33  32  98 NW6       29.52S WCI  27
$$

...ELSEWHERE IN WISCONSIN...


CITY           SKY/WX    TMP DP  RH WIND       PRES   REMARKS
MILWAUKEE      CLOUDY    40  34  79 NW9       29.47F WCI  34
MADISON        DRIZZLE   36  33  89 NW6       29.49F WCI  31
GREEN BAY      CLOUDY    35  34  96 N9        29.48F WCI  28
EAU CLAIRE     CLOUDY    36  31  82 NW10      29.59F WCI  28
BLACK RVR FLS  CLOUDY    37  31  81 N8        29.56F WCI  30
MEDFORD        CLOUDY    32  29  88 N8        29.53F WCI  25
WAUSAU         CLOUDY    34  30  85 NW7       29.50F WCI  28
WIS RAPIDS     CLOUDY    35  31  85 NW7       29.53F WCI  29
MARSHFIELD     CLOUDY    35  30  82 N8        29.52F WCI  29
RICE LAKE      CLOUDY    35  31  85 NW6       29.61F WCI  30
$$

...NORTHEAST IOWA...


CITY           SKY/WX    TMP DP  RH WIND       PRES   REMARKS
DECORAH        CLOUDY    36  32  87 NW13G22   29.58S WCI  27
MASON CITY     CLOUDY    33  31  92 NW15      29.66F WCI  23
CHARLES CITY   FLURRIES  34  34 100 NW15G21   29.64F WCI  24
OELWEIN        CLOUDY    36  32  87 NW22G28   29.61S WCI  24
$$

...ELSEWHERE IN IOWA...


CITY           SKY/WX    TMP DP  RH WIND       PRES   REMARKS
DES MOINES     CLOUDY    35  31  85 NW15G25   29.72F WCI  25
IOWA CITY      CLOUDY    37  32  82 NW14      29.62F WCI  28
FORT DODGE     CLOUDY    34  28  80 NW9       29.71F WCI  26
$$

...NORTHERN ILLINOIS...


CITY           SKY/WX    TMP DP  RH WIND       PRES   REMARKS
CHICAGO-OHARE  CLOUDY    40  34  79 W10       29.48F WCI  33
CHICAGO-MIDWAY CLOUDY    41  35  79 W9        29.48F
MOLINE         CLOUDY    36  31  82 NW15G22   29.57F WCI  27
ROCKFORD       CLOUDY    37  33  85 NW8       29.53F WCI  31
PEORIA         CLOUDY    38  33  82 NW9       29.58F WCI  31
$$

NOTE: "FAIR" INDICATES FEW OR NO CLOUDS BELOW 12,000 FEET WITH NO
SIGNIFICANT WEATHER AND/OR OBSTRUCTIONS TO VISIBILITY. WIND
SPEEDS ARE IN MILES-PER-HOUR.



USA.gov is the U.S. government's official web portal to all federal, state and local government web resources and services.